Flag for USA

Past Weather in Aspen, Colorado, USA — Yesterday and Last 2 Weeks

Now
65 °F

Sunny.


Feels Like: 65 °F
Forecast: 64 / 35 °F
Wind: 10 mph from North

Location: Aspen-Pitkin County Airport
Current Time: Oct 20, 2020 at 5:58:32 pm
Latest Report: Oct 20, 2020 at 4:53 pm
Visibility: 10 mi
Pressure29.84 "Hg(22.49 "Hg at 2411m altitude)
Humidity: 16%
Dew Point: 18 °F
Location of AspenLocation

Past Weather in Aspen — Graph

°F

Aspen Temperature Yesterday

Maximum temperature yesterday: 66 °F (at 1:53 pm)
Minimum temperature yesterday: 35 °F (at 4:53 am)
Average temperature yesterday: 49 °F

High & Low Weather Summary for the Past Weeks

 TemperatureHumidityPressure
High77 °F (Oct 7, 1:53 pm)88% (Oct 11, 8:53 pm)30.38 "Hg (Oct 11, 8:53 pm)
Low23 °F (Oct 16, 5:53 am)7% (Oct 7, 1:53 pm)29.55 "Hg (Oct 11, 4:53 am)
Average50 °F32%29.99 "Hg
* Reported Oct 5 3:53 pm — Oct 20 3:53 pm, Aspen. Weather by CustomWeather, © 2020

Note: Actual official high and low records may vary slightly from our data, if they occured in-between our weather recording intervals... More about our weather records

Aspen Weather History for the Previous 24 Hours

Scroll right to see more
 ConditionsComfort  
Time TempWeatherWind HumidityBarometerVisibility
3:53 pm
Tue, Oct 20
67 °FSunny.12 mph16%29.81 "Hg10 mi
2:53 pm65 °FSunny.16 mph16%29.82 "Hg10 mi
1:53 pm65 °FSunny.14 mph17%29.84 "Hg10 mi
12:53 pm63 °FSunny.7 mph18%29.87 "Hg10 mi
11:53 am61 °FSunny.8 mph19%29.93 "Hg10 mi
10:53 am56 °FSunny.7 mph22%29.95 "Hg10 mi
9:53 am51 °FSunny.3 mph26%29.97 "Hg10 mi
8:53 am44 °FSunny.No wind34%30.01 "Hg10 mi
7:53 am34 °FSunny.9 mph46%30.02 "Hg10 mi
6:53 am33 °FClear.9 mph45%30.03 "Hg10 mi
5:53 am33 °FClear.6 mph43%29.98 "Hg10 mi
4:53 am33 °FClear.9 mph43%29.93 "Hg10 mi
3:53 am35 °FClear.8 mph38%29.91 "Hg10 mi
2:53 am35 °FClear.6 mph38%29.90 "Hg10 mi
1:53 am35 °FClear.8 mph38%29.89 "Hg10 mi
12:53 am37 °FClear.3 mph36%29.90 "Hg10 mi
11:53 pm
Mon, Oct 19
35 °FClear.7 mph40%29.91 "Hg10 mi
10:53 pm39 °FClear.9 mph34%29.92 "Hg10 mi
9:53 pm42 °FClear.8 mph30%29.95 "Hg10 mi
8:53 pm43 °FClear.5 mph29%29.96 "Hg10 mi
7:53 pm47 °FClear.10 mph26%29.97 "Hg10 mi
6:53 pm49 °FClear.9 mph25%29.95 "Hg10 mi
5:53 pm55 °FSunny.No wind17%29.93 "Hg10 mi
Weather by CustomWeather, © 2020

See weather overview